Zurück zum Katalog

PRAETORIAN SDA_516

AktivPO
NORAD 100074·PAYLOAD·🇺🇸 United States

Gestartet Jul 16, 2026 von Vandenberg Space Force Base

Loading…

Nächste Überflüge (nächste 24 Stunden)

TLE

AktuellSource: Space-Track

Epoche: Sep 14, 2026, 07:14 UTC

1 A0074U 26163R   26257.30189512  .00000167  00000-0  13350-3 0  9999
2 A0074  81.4784 255.5624 0017965  57.5248 302.7644 13.86229684  8242

Verfolge PRAETORIAN SDA_516 in Echtzeit mit AllMySat

Download on the App Store